Emporia, Virginia, United States (23847)
Lat: 36.69N, Lon: 77.54W
Wx Zone: VAZ087
Local Info
Past Weather Observations for Tuesday, August 19, 2014

NOTE: This archive is for the closest National Weather Service station to Emporia. Information may differ from the station used for current weather conditions.

Click here for Long-term Archive

Time Weather Temperature Dewpoint Humidity Pressure Winds Precip Visibility
23:55
Fair
70°F / 21°C 70°F / 21°C 100% 29.92 in
(1013 mb)
Calm -
23:35
Clear
70°F / 21°C 70°F / 21°C 100% 29.95 in
(1014 mb)
Calm - 7SM
23:15
Clear
70°F / 21°C 68°F / 20°C 94% 29.95 in
(1014 mb)
Calm - 7SM
22:55
Fair
70°F / 21°C 70°F / 21°C 100% 29.92 in
(1013 mb)
Calm -
22:35
Clear
Fog And Mist
70°F / 21°C 68°F / 20°C 94% 29.92 in
(1013 mb)
Calm - 2 1/2SM
22:15
Clear
70°F / 21°C 70°F / 21°C 100% 29.92 in
(1013 mb)
Calm - 10SM
21:55
Clear
70°F / 21°C 70°F / 21°C 100% 29.92 in
(1013 mb)
Calm - 7SM
21:35
Clear
70°F / 21°C 70°F / 21°C 100% 29.92 in
(1013 mb)
Calm - 7SM
21:15
Clear
70°F / 21°C 70°F / 21°C 100% 29.92 in
(1013 mb)
Calm - 7SM
20:55
Clear
70°F / 21°C 70°F / 21°C 100% 29.92 in
(1013 mb)
Calm - 10SM
20:35
Clear
70°F / 21°C 70°F / 21°C 100% 29.92 in
(1013 mb)
Calm - 10SM
20:15
Clear
72°F / 22°C 70°F / 21°C 94% 29.92 in
(1013 mb)
Calm - 10SM
19:55
Clear
73°F / 23°C 70°F / 21°C 89% 29.89 in
(1012 mb)
NE 3.5 mph
(NE 6 kph)
- 10SM
19:35
Fair
73°F / 23°C 72°F / 22°C 94% 29.89 in
(1012 mb)
N 3.5 mph
(N 6 kph)
-
19:15
Partly Cloudy
73°F / 23°C 72°F / 22°C 94% 29.89 in
(1012 mb)
Calm - 10SM
18:55
Mostly Cloudy
75°F / 24°C 72°F / 22°C 89% 29.86 in
(1011 mb)
Calm -
18:35
Overcast
77°F / 25°C 72°F / 22°C 83% N/A Calm -
18:15
Overcast
77°F / 25°C 72°F / 22°C 83% 29.86 in
(1011 mb)
Calm - 10SM
17:55
Overcast
77°F / 25°C 72°F / 22°C 83% 29.86 in
(1011 mb)
Calm - 10SM
17:35
Overcast
79°F / 26°C 72°F / 22°C 79% 29.86 in
(1011 mb)
ENE 3.5 mph
(ENE 6 kph)
- 10SM
17:15
Overcast
79°F / 26°C 72°F / 22°C 79% 29.83 in
(1010 mb)
NE 3.5 mph
(NE 6 kph)
- 10SM
16:55
Overcast
79°F / 26°C 72°F / 22°C 79% 29.83 in
(1010 mb)
Calm - 10SM
16:35
Partly Cloudy
82°F / 28°C 72°F / 22°C 70% 29.83 in
(1010 mb)
WNW 3.5 mph
(WNW 6 kph)
-
16:15
Partly Cloudy
82°F / 28°C 70°F / 21°C 66% 29.83 in
(1010 mb)
NW 4.6 mph
(NW 7 kph)
- 10SM
15:55
Overcast
79°F / 26°C 72°F / 22°C 79% 29.83 in
(1010 mb)
WNW 4.6 mph
(WNW 7 kph)
- 10SM
15:35
Mostly Cloudy
81°F / 27°C 72°F / 22°C 74% 29.83 in
(1010 mb)
NW 4.6 mph
(NW 7 kph)
- 10SM
15:15
Partly Cloudy
82°F / 28°C 72°F / 22°C 70% 29.83 in
(1010 mb)
WNW 5.8 mph
(WNW 9 kph)
- 10SM
14:55
Partly Cloudy
82°F / 28°C 72°F / 22°C 70% 29.83 in
(1010 mb)
NW 6.9 mph
(NW 11 kph)
- 10SM
14:35
Partly Cloudy
82°F / 28°C 72°F / 22°C 70% 29.83 in
(1010 mb)
NNW 5.8 mph
(NNW 9 kph)
- 10SM
14:15
Mostly Cloudy
81°F / 27°C 72°F / 22°C 74% 29.83 in
(1010 mb)
NW 5.8 mph
(NW 9 kph)
- 10SM
13:55
Mostly Cloudy
82°F / 28°C 72°F / 22°C 70% 29.83 in
(1010 mb)
Calm -
13:35
Overcast
79°F / 26°C 72°F / 22°C 79% 29.86 in
(1011 mb)
NW 3.5 mph
(NW 6 kph)
- 10SM
13:15
Overcast
79°F / 26°C 72°F / 22°C 79% 29.86 in
(1011 mb)
Calm - 10SM
12:55
Overcast
81°F / 27°C 72°F / 22°C 74% 29.86 in
(1011 mb)
NW 6.9 mph
(NW 11 kph)
- 10SM
12:35
Overcast
79°F / 26°C 72°F / 22°C 79% 29.86 in
(1011 mb)
NNW 5.8 mph
(NNW 9 kph)
- 10SM
12:15
Overcast
77°F / 25°C 70°F / 21°C 79% 29.86 in
(1011 mb)
NNW 5.8 mph
(NNW 9 kph)
- 10SM
11:55
Mostly Cloudy
81°F / 27°C 72°F / 22°C 74% 29.86 in
(1011 mb)
NNW 5.8 mph
(NNW 9 kph)
- 10SM
11:35
Partly Cloudy
81°F / 27°C 72°F / 22°C 74% 29.86 in
(1011 mb)
NNW 4.6 mph
(NNW 7 kph)
- 10SM
11:15
Mostly Cloudy
77°F / 25°C 72°F / 22°C 83% 29.86 in
(1011 mb)
WNW 5.8 mph
(WNW 9 kph)
- 10SM
10:55
Mostly Cloudy
79°F / 26°C 72°F / 22°C 79% 29.86 in
(1011 mb)
NNW 6.9 mph
(NNW 11 kph)
- 10SM
10:35
Mostly Cloudy
77°F / 25°C 72°F / 22°C 83% 29.86 in
(1011 mb)
NW 6.9 mph
(NW 11 kph)
- 10SM
10:15
Mostly Cloudy
75°F / 24°C 72°F / 22°C 89% 29.86 in
(1011 mb)
NW 4.6 mph
(NW 7 kph)
- 10SM
09:55
Mostly Cloudy
77°F / 25°C 72°F / 22°C 83% 29.86 in
(1011 mb)
NW 8.1 mph
(NW 13 kph)
- 10SM
09:35
Mostly Cloudy
77°F / 25°C 72°F / 22°C 83% 29.86 in
(1011 mb)
NW 6.9 mph
(NW 11 kph)
- 10SM
09:15
Overcast
73°F / 23°C 72°F / 22°C 94% 29.86 in
(1011 mb)
NNW 6.9 mph
(NNW 11 kph)
- 10SM
08:55
Fair
73°F / 23°C 72°F / 22°C 94% 29.83 in
(1010 mb)
NNW 8.1 mph
(NNW 13 kph)
-
08:35
Overcast
73°F / 23°C 72°F / 22°C 94% 29.83 in
(1010 mb)
NW 6.9 mph
(NW 11 kph)
- 10SM
08:15
Overcast
72°F / 22°C 72°F / 22°C 100% 29.83 in
(1010 mb)
NW 6.9 mph
(NW 11 kph)
- 10SM
07:55
Overcast
Fog And Mist
72°F / 22°C 72°F / 22°C 100% 29.83 in
(1010 mb)
NW 5.8 mph
(NW 9 kph)
- 3SM
07:35
Overcast
Fog And Mist
72°F / 22°C 72°F / 22°C 100% 29.83 in
(1010 mb)
W 4.6 mph
(W 7 kph)
- 5SM
07:15
Overcast
Fog And Mist
72°F / 22°C 70°F / 21°C 94% 29.83 in
(1010 mb)
W 5.8 mph
(W 9 kph)
- 1 3/4SM
06:55
Overcast
Fog And Mist
70°F / 21°C 70°F / 21°C 100% 29.83 in
(1010 mb)
W 3.5 mph
(W 6 kph)
- 3SM
06:35
Overcast
70°F / 21°C 70°F / 21°C 100% 29.83 in
(1010 mb)
W 3.5 mph
(W 6 kph)
- 10SM
06:15
Overcast
70°F / 21°C 70°F / 21°C 100% 29.8 in
(1009 mb)
SSW 3.5 mph
(SSW 6 kph)
- 10SM
05:55
Overcast
70°F / 21°C 70°F / 21°C 100% 29.8 in
(1009 mb)
SSW 3.5 mph
(SSW 6 kph)
- 10SM
05:35
Overcast
Light Snow
70°F / 21°C 70°F / 21°C 100% 29.8 in
(1009 mb)
Calm - 5SM
05:15
Overcast
Drizzle
70°F / 21°C 70°F / 21°C 100% 29.8 in
(1009 mb)
Calm - 1 3/4SM
04:55
Overcast
Fog And Mist
70°F / 21°C 70°F / 21°C 100% 29.8 in
(1009 mb)
Calm 0.01 in
(0.25 mm)
5SM
04:35
Overcast
70°F / 21°C 70°F / 21°C 100% 29.77 in
(1008 mb)
Calm - 10SM
04:15
Overcast
70°F / 21°C 70°F / 21°C 100% N/A Calm -
03:55
Overcast
70°F / 21°C 70°F / 21°C 100% 29.77 in
(1008 mb)
Calm - 10SM
03:35
Overcast
70°F / 21°C 70°F / 21°C 100% 29.77 in
(1008 mb)
Calm - 10SM
03:15
Overcast
70°F / 21°C 70°F / 21°C 100% 29.77 in
(1008 mb)
Calm - 10SM
02:55
Overcast
70°F / 21°C 70°F / 21°C 100% 29.77 in
(1008 mb)
SSW 3.5 mph
(SSW 6 kph)
- 7SM
02:35
Overcast
70°F / 21°C 70°F / 21°C 100% 29.77 in
(1008 mb)
SW 4.6 mph
(SW 7 kph)
- 10SM
02:15
Overcast
70°F / 21°C 70°F / 21°C 100% 29.77 in
(1008 mb)
SSE 5.8 mph
(SSE 9 kph)
- 10SM
01:55
Overcast
Heavy Snow
72°F / 22°C 70°F / 21°C 94% 29.77 in
(1008 mb)
SSE 4.6 mph
(SSE 7 kph)
0.12 in
(3.05 mm)
2 1/2SM
01:35
Overcast
Heavy Rain
72°F / 22°C 70°F / 21°C 94% 29.8 in
(1009 mb)
SSE 4.6 mph
(SSE 7 kph)
0.03 in
(0.76 mm)
5SM
01:15
Overcast
72°F / 22°C 70°F / 21°C 94% 29.8 in
(1009 mb)
Calm - 10SM
00:55
Fair
72°F / 22°C 72°F / 22°C 100% 29.8 in
(1009 mb)
SE 3.5 mph
(SE 6 kph)
0.01 in
(0.25 mm)
00:35
Overcast
72°F / 22°C 72°F / 22°C 100% 29.8 in
(1009 mb)
SSE 3.5 mph
(SSE 6 kph)
0.01 in
(0.25 mm)
10SM
00:15
Overcast
Rain
72°F / 22°C 72°F / 22°C 100% 29.8 in
(1009 mb)
SE 5.8 mph
(SE 9 kph)
0.01 in
(0.25 mm)
10SM
Time Weather Temperature Dewpoint Humidity Pressure Winds Precip Visibility


Weather for websites

WeatherForYou.com, LLC is not responsible for any damages or problems caused by this service. Current weather conditions are obtained from the closest station including government and personal stations which may have varying degrees of accuracy. Weather forecasts are derived from the NOAA NDFD. Like all things, this site belongs to Jesus Christ... He just trusts me to maintain it. If you have any questions or comments email webmaster@weatherforyou.com

Copyright © 2014, WeatherForYou.com LLC. All rights reserved.